| time (UTC) | temp F | wind direction | speed MPH | gust MPH | rain 1hr in | rain 24hr in | rain mn in | humidity % | barometer mb |
| 20260904041526 | 53 | 229 | 0.0 | 2.0 | 0.28 | 0.35 | 0.28 | 93 | 1010.0 |
| 20260904040023 | 55 | 44 | 0.0 | 4.0 | 0.24 | 0.30 | 0.24 | 88 | 1009.8 |
| 20260904034521 | 60 | 67 | 2.0 | 5.0 | 0.00 | 0.06 | 0.00 | 56 | 1009.5 |
| 20260904033021 | 60 | 84 | 0.0 | 4.0 | 0.00 | 0.06 | 0.00 | 55 | 1009.2 |
| 20260904031521 | 60 | 110 | 0.0 | 8.0 | 0.00 | 0.06 | 0.00 | 55 | 1008.9 |
| 20260904030029 | 60 | 146 | 1.0 | 3.0 | 0.00 | 0.06 | 0.00 | 55 | 1008.7 |
| 20260904024621 | 61 | 109 | 0.0 | 4.0 | 0.00 | 0.06 | 0.00 | 54 | 1008.5 |
| 20260904023019 | 61 | 98 | 2.0 | 7.0 | 0.00 | 0.06 | 0.00 | 53 | 1008.1 |
| 20260904021530 | 62 | 100 | 2.0 | 6.0 | 0.00 | 0.06 | 0.00 | 51 | 1007.9 |
| 20260904020018 | 64 | 141 | 3.0 | 9.0 | 0.00 | 0.06 | 0.00 | 49 | 1007.9 |
| 20260904014521 | 66 | 174 | 0.0 | 5.0 | 0.00 | 0.06 | 0.00 | 47 | 1007.7 |
| 20260904013017 | 67 | 67 | 0.0 | 1.0 | 0.00 | 0.06 | 0.00 | 42 | 1007.6 |
| 20260904011516 | 69 | 281 | 1.0 | 7.0 | 0.00 | 0.06 | 0.00 | 39 | 1007.5 |
| 20260904010117 | 70 | 19 | 0.0 | 6.0 | 0.00 | 0.06 | 0.00 | 36 | 1007.5 |
| 20260904004516 | 69 | 305 | 3.0 | 9.0 | 0.00 | 0.06 | 0.00 | 37 | 1007.5 |
| 20260904003019 | 70 | 328 | 1.0 | 8.0 | 0.00 | 0.06 | 0.00 | 37 | 1007.6 |
| 20260904001514 | 71 | 27 | 1.0 | 8.0 | 0.00 | 0.06 | 0.00 | 36 | 1007.7 |
| 20260904000013 | 71 | 50 | 3.0 | 7.0 | 0.00 | 0.06 | 0.00 | 35 | 1007.6 |
| 20260903234512 | 70 | 84 | 1.0 | 7.0 | 0.00 | 0.06 | 0.00 | 35 | 1007.6 |
| 20260903233009 | 70 | 293 | 2.0 | 5.0 | 0.00 | 0.06 | 0.00 | 35 | 1007.8 |
| 20260903231617 | 70 | 28 | 6.0 | 11.0 | 0.00 | 0.06 | 0.00 | 34 | 1008.0 |
| 20260903230010 | 70 | 298 | 4.0 | 10.0 | 0.00 | 0.06 | 0.00 | 36 | 1008.2 |
| 20260903224505 | 70 | 61 | 4.0 | 9.0 | 0.00 | 0.07 | 0.00 | 37 | 1008.3 |
| 20260903223003 | 70 | 326 | 4.0 | 9.0 | 0.00 | 0.07 | 0.00 | 40 | 1008.4 |
| 20260903221502 | 69 | 329 | 3.0 | 13.0 | 0.00 | 0.07 | 0.00 | 41 | 1008.4 |
| 20260903220002 | 70 | 47 | 4.0 | 10.0 | 0.00 | 0.07 | 0.00 | 39 | 1008.6 |
| 20260903214604 | 69 | 343 | 5.0 | 14.0 | 0.00 | 0.08 | 0.00 | 39 | 1008.6 |
| 20260903213057 | 69 | 1 | 3.0 | 10.0 | 0.00 | 0.08 | 0.00 | 40 | 1008.5 |
| 20260903211555 | 68 | 307 | 4.0 | 15.0 | 0.00 | 0.08 | 0.00 | 40 | 1008.6 |
| 20260903210055 | 69 | 47 | 3.0 | 12.0 | 0.00 | 0.08 | 0.00 | 42 | 1008.7 |
| 20260903204556 | 68 | 32 | 6.0 | 13.0 | 0.00 | 0.08 | 0.00 | 39 | 1008.7 |
| 20260903203054 | 68 | 30 | 8.0 | 13.0 | 0.00 | 0.08 | 0.00 | 39 | 1008.9 |
| 20260903201549 | 68 | 360 | 3.0 | 13.0 | 0.00 | 0.08 | 0.00 | 44 | 1009.0 |
| 20260903200050 | 68 | 86 | 5.0 | 12.0 | 0.00 | 0.08 | 0.00 | 43 | 1009.2 |
| 20260903194545 | 68 | 325 | 4.0 | 10.0 | 0.00 | 0.08 | 0.00 | 44 | 1009.2 |
| 20260903193044 | 67 | 47 | 6.0 | 11.0 | 0.00 | 0.08 | 0.00 | 45 | 1009.3 |
| 20260903191541 | 67 | 9 | 4.0 | 8.0 | 0.00 | 0.08 | 0.00 | 44 | 1009.3 |
| 20260903190038 | 66 | 20 | 4.0 | 12.0 | 0.00 | 0.08 | 0.00 | 45 | 1009.6 |
| 20260903184537 | 65 | 42 | 4.0 | 10.0 | 0.00 | 0.08 | 0.00 | 48 | 1009.8 |
| 20260903183036 | 65 | 309 | 2.0 | 11.0 | 0.00 | 0.08 | 0.00 | 49 | 1009.7 |
| 20260903181534 | 65 | 81 | 3.0 | 7.0 | 0.00 | 0.08 | 0.00 | 46 | 1009.8 |
| 20260903180050 | 65 | 331 | 1.0 | 12.0 | 0.00 | 0.08 | 0.00 | 51 | 1009.9 |
| 20260903174528 | 63 | 302 | 1.0 | 12.0 | 0.00 | 0.08 | 0.00 | 55 | 1010.0 |
| 20260903173024 | 61 | 84 | 2.0 | 10.0 | 0.00 | 0.08 | 0.00 | 61 | 1009.9 |
| 20260903171520 | 60 | 294 | 3.0 | 7.0 | 0.00 | 0.08 | 0.00 | 67 | 1010.1 |
| 20260903170020 | 59 | 287 | 3.0 | 5.0 | 0.00 | 0.08 | 0.00 | 67 | 1010.2 |
| 20260903164513 | 58 | 337 | 2.0 | 5.0 | 0.00 | 0.08 | 0.00 | 68 | 1010.3 |
| 20260903163008 | 58 | 269 | 1.0 | 5.0 | 0.00 | 0.08 | 0.00 | 70 | 1010.4 |
| 20260903161508 | 57 | 250 | 4.0 | 7.0 | 0.00 | 0.08 | 0.00 | 70 | 1010.4 |
| 20260903160007 | 57 | 67 | 0.0 | 4.0 | 0.00 | 0.08 | 0.00 | 72 | 1010.5 |
| 20260903154502 | 56 | 359 | 0.0 | 3.0 | 0.00 | 0.08 | 0.00 | 75 | 1010.4 |
| 20260903153002 | 55 | 312 | 0.0 | 2.0 | 0.00 | 0.08 | 0.00 | 79 | 1010.4 |
| 20260903151503 | 54 | 212 | 0.0 | 0.0 | 0.00 | 0.08 | 0.00 | 78 | 1010.4 |
| 20260903150108 | 56 | 75 | 0.0 | 0.0 | 0.00 | 0.08 | 0.00 | 80 | 1010.5 |
| 20260903144558 | 51 | 75 | 0.0 | 0.0 | 0.00 | 0.08 | 0.00 | 90 | 1010.5 |
| 20260903143056 | 48 | 75 | 0.0 | 0.0 | 0.00 | 0.08 | 0.00 | 93 | 1010.4 |
| 20260903141557 | 46 | 75 | 0.0 | 0.0 | 0.00 | 0.08 | 0.00 | 95 | 1010.2 |
| 20260903140053 | 43 | 75 | 0.0 | 1.0 | 0.00 | 0.08 | 0.00 | 94 | 1010.1 |
| 20260903134550 | 43 | 75 | 0.0 | 1.0 | 0.00 | 0.08 | 0.00 | 93 | 1009.9 |
| 20260903133047 | 44 | 75 | 0.0 | 0.0 | 0.00 | 0.08 | 0.00 | 94 | 1009.8 |
| 20260903131546 | 44 | 75 | 0.0 | 0.0 | 0.00 | 0.08 | 0.00 | 94 | 1009.7 |
| 20260903130108 | 44 | 75 | 0.0 | 1.0 | 0.00 | 0.08 | 0.00 | 94 | 1009.5 |
| 20260903124543 | 44 | 75 | 0.0 | 1.0 | 0.00 | 0.08 | 0.00 | 93 | 1009.6 |
| 20260903123040 | 45 | 75 | 0.0 | 0.0 | 0.00 | 0.08 | 0.00 | 93 | 1009.7 |
| 20260903121545 | 46 | 75 | 0.0 | 2.0 | 0.00 | 0.08 | 0.00 | 92 | 1009.7 |
| 20260903120035 | 47 | 75 | 0.0 | 0.0 | 0.00 | 0.08 | 0.00 | 93 | 1009.4 |
| 20260903114535 | 47 | 75 | 0.0 | 1.0 | 0.00 | 0.08 | 0.00 | 94 | 1009.4 |
| 20260903113036 | 47 | 75 | 0.0 | 0.0 | 0.00 | 0.08 | 0.00 | 92 | 1009.3 |
| 20260903111529 | 47 | 75 | 0.0 | 3.0 | 0.00 | 0.08 | 0.00 | 92 | 1009.3 |
| 20260903110103 | 48 | 82 | 0.0 | 1.0 | 0.00 | 0.08 | 0.00 | 92 | 1008.9 |
| 20260903104523 | 49 | 82 | 0.0 | 1.0 | 0.00 | 0.08 | 0.00 | 92 | 1008.8 |
| 20260903103022 | 50 | 82 | 0.0 | 1.0 | 0.00 | 0.08 | 0.00 | 93 | 1008.8 |
| 20260903101517 | 50 | 82 | 0.0 | 1.0 | 0.00 | 0.08 | 0.00 | 93 | 1008.6 |
| 20260903100014 | 51 | 82 | 0.0 | 2.0 | 0.00 | 0.08 | 0.00 | 93 | 1008.6 |
| 20260903094523 | 52 | 82 | 1.0 | 3.0 | 0.00 | 0.08 | 0.00 | 93 | 1008.5 |
| 20260903093007 | 53 | 132 | 0.0 | 0.0 | 0.00 | 0.08 | 0.00 | 92 | 1008.3 |
| 20260903091505 | 53 | 133 | 0.0 | 0.0 | 0.00 | 0.08 | 0.00 | 92 | 1008.3 |
| 20260903090005 | 53 | 133 | 0.0 | 0.0 | 0.00 | 0.08 | 0.00 | 92 | 1008.3 |
| 20260903084501 | 53 | 133 | 0.0 | 1.0 | 0.00 | 0.08 | 0.00 | 91 | 1008.0 |
| 20260903083158 | 54 | 208 | 0.0 | 0.0 | 0.00 | 0.08 | 0.00 | 89 | 1007.8 |
| 20260903081607 | 54 | 208 | 0.0 | 1.0 | 0.00 | 0.08 | 0.00 | 90 | 1007.8 |
| 20260903080056 | 54 | 208 | 0.0 | 2.0 | 0.00 | 0.08 | 0.00 | 91 | 1007.7 |
| 20260903074606 | 54 | 208 | 0.0 | 1.0 | 0.01 | 0.08 | 0.00 | 91 | 1007.5 |
| 20260903073052 | 54 | 208 | 0.0 | 1.0 | 0.01 | 0.08 | 0.00 | 90 | 1007.3 |
| 20260903071553 | 55 | 208 | 0.0 | 1.0 | 0.01 | 0.08 | 0.00 | 89 | 1007.2 |
| 20260903070047 | 56 | 208 | 0.0 | 2.0 | 0.01 | 0.08 | 0.00 | 89 | 1007.2 |
| 20260903064645 | 56 | 202 | 0.0 | 1.0 | 0.00 | 0.07 | 0.07 | 89 | 1007.2 |
| 20260903063045 | 56 | 248 | 0.0 | 1.0 | 0.00 | 0.07 | 0.07 | 89 | 1007.2 |
| 20260903061552 | 56 | 249 | 0.0 | 1.0 | 0.01 | 0.07 | 0.07 | 89 | 1007.3 |
| 20260903060045 | 56 | 246 | 0.0 | 2.0 | 0.02 | 0.07 | 0.07 | 89 | 1007.2 |
| 20260903054548 | 56 | 245 | 0.0 | 3.0 | 0.02 | 0.07 | 0.07 | 90 | 1007.2 |
| 20260903053102 | 56 | 287 | 1.0 | 8.0 | 0.03 | 0.07 | 0.07 | 90 | 1007.4 |
| 20260903051543 | 57 | 284 | 1.0 | 4.0 | 0.03 | 0.06 | 0.06 | 89 | 1007.3 |
| 20260903050143 | 57 | 287 | 2.0 | 4.0 | 0.02 | 0.05 | 0.05 | 89 | 1007.4 |
| 20260903044551 | 57 | 275 | 3.0 | 8.0 | 0.03 | 0.05 | 0.05 | 88 | 1007.1 |
| 20260903043040 | 57 | 262 | 2.0 | 6.0 | 0.02 | 0.04 | 0.04 | 87 | 1007.2 |